Weather History for Minamitorishima, Japan

Change the Weather History Date:

Saturday, May 3, 2014

  Actual Average Record
Temperature  
Mean Temperature 78 °F -  
Max Temperature 83 °F - - ()
Min Temperature 74 °F - - ()
Cooling Degree Days 14    
Growing Degree Days 28 (Base 50)    
Moisture  
Dew Point 76 °F    
Average Humidity 92    
Maximum Humidity 100    
Minimum Humidity 82    
Precipitation  
Precipitation 0.00 in - - ()
Sea Level Pressure  
Sea Level Pressure 29.93 in    
Wind  
Wind Speed 7 mph ()    
Max Wind Speed 9 mph    
Max Gust Speed -    
T = Trace of Precipitation, MM = Missing Value Source: Averaged Metar Reports

Daily Weather History Graph

Daily Weather History Graph

Search for Another Location

Airport:

Trip Planner

Search our weather history database for the weather conditions in past years. The results will help you decide how hot, cold, wet, or windy it might be!

Date:

Astronomy

May. 03, 2014 Rise Set
Actual Time 5:08 AM ChST 6:13 PM ChST
Civil Twilight 4:44 AM ChST 6:37 PM ChST
Nautical Twilight 4:16 AM ChST 7:06 PM ChST
Astronomical Twilight 3:47 AM ChST 7:35 PM ChST
Moon 8:08 AM ChST (5/3) 9:45 PM ChST (5/3)
Length of Visible Light 13h 53m
Length of Day
13h 05m
Waxing Crescent, 15% of the Moon is Illuminated
May 3
Waxing Crescent
May 7
First Quarter
May 15
Full
May 21
Last Quarter
May 29
New

Hourly Weather History & Observations

Time (ChST) Temp. Dew Point Humidity Pressure Visibility Wind Dir Wind Speed Gust Speed Precip Events Conditions
12:00 AM 75 °F 74 °F 97% 29.99 in - SSE 6.9 mph - -  
1:00 AM 74 °F 74 °F 100% 29.98 in - SSE 8.1 mph - -  
2:00 AM 74 °F 74 °F 100% 29.96 in - South 8.1 mph - -  
3:00 AM 74 °F 74 °F 100% 29.94 in - South 9.2 mph - -  
4:00 AM 75 °F 74 °F 97% 29.93 in - South 9.2 mph - -  
5:00 AM 74 °F 74 °F 100% 29.93 in - South 6.9 mph - -  
6:00 AM 75 °F 75 °F 99% 29.94 in - South 9.2 mph - -  
7:00 AM 76 °F 76 °F 98% 29.94 in - South 6.9 mph - -  
8:00 AM 77 °F 75 °F 92% 29.94 in - South 8.1 mph - -  
9:00 AM 79 °F 76 °F 88% 29.95 in - South 8.1 mph - -  
10:00 AM 80 °F 76 °F 85% 29.95 in - SSW 8.1 mph - -  
11:00 AM 81 °F 76 °F 82% 29.93 in - South 8.1 mph - -  
12:00 PM 81 °F 77 °F 83% 29.91 in - SSW 8.1 mph - -  
1:00 PM 82 °F 78 °F 83% 29.89 in - SSW 9.2 mph - -  
2:00 PM 80 °F 77 °F 89% 29.88 in - SSW 8.1 mph - -  
3:00 PM 81 °F 77 °F 84% 29.88 in - SSW 8.1 mph - -  
4:00 PM 80 °F 76 °F 84% 29.87 in - SW 9.2 mph - -  
5:00 PM 80 °F 76 °F 86% 29.88 in - WSW 8.1 mph - -  
6:00 PM 78 °F 76 °F 91% 29.90 in - WSW 8.1 mph - -  
7:00 PM 77 °F 76 °F 94% 29.91 in - WSW 8.1 mph - -  
8:00 PM 77 °F 75 °F 93% 29.93 in - WSW 6.9 mph - -  
9:00 PM 76 °F 75 °F 96% 29.94 in - WSW 6.9 mph - -  
10:00 PM 76 °F 76 °F 98% 29.94 in - WSW 6.9 mph - -  
11:00 PM 76 °F 75 °F 97% 29.94 in - WSW 8.1 mph - -